{"data":{"norad_id":64154,"intl_designator":"2025-112J","name":"STARLINK-33945","alt_names":[],"object_type":"PAYLOAD","status":"ACTIVE","operator":null,"country":"US","launch_date":"2025-05-27","launch_site_code":"AFWTR","launch_vehicle":null,"mission":null,"orbit_class":"UNKNOWN","rcs_meters":null,"size_class":null,"mass_kg":null,"dimensions":null,"purposes":["comms"],"wikipedia_slug":null,"has_3d_model":false,"image_url":null,"decayed_at":null,"tle_current":{"epoch":"2026-05-25T03:18:53.334720Z","epoch_age_seconds":66225,"freshness":"FRESH","line1":"1 64154U 25112J   26145.13811730  .00001980  00000+0  14125-3 0  9996","line2":"2 64154  97.4485 205.0191 0002142 154.1183 206.0151 15.05653833 55362","mean_motion":15.05653833,"eccentricity":0.0002142,"inclination_deg":97.4485,"raan_deg":205.0191,"arg_perigee_deg":154.1183,"mean_anomaly_deg":206.0151,"bstar":0.00014125,"rev_number":5536,"period_min":95.639513441866,"perigee_km":548.01549700039,"apogee_km":550.98329643274,"semimajor_km":6927.6363967166,"source":"CELESTRAK","updated_at":"2026-05-25T13:38:20.303901Z"}}}